Find Starlink 31931

NORAD ID: 59864 Int'l Des: 2024-098 Owner: SPXS Country: US Constellation: starlink operational
LEOCIRCULAR

Current View

Loading 3D Globe...

About Starlink 31931

Starlink 31931 (NORAD 59864) is a starlink constellation satellite (v2 mini) launched May 24, 2024 by SPXS of US. It operates in LEO, CIRCULAR orbit with a mass of 730.00 kg.

Upcoming Passes

Passes for default location (London). Set your location on the main map for personalized predictions.

Altitude History

Loading altitude history...

Two-Line Element Set

1 59864U 24098G 26263.68045271 .00002573 00000-0 10299-3 0 9998
2 59864 42.9999 257.1193 0001286 236.8963 123.1765 15.27578319131668
Epoch: Sep 20, 2026 • Age: 17 hours

Current Status

Altitude 491.7 km
Apogee / Perigee N/A
Velocity 7.62 km/s
Sub-Earth Point -32.41°S, 69.71°E
Launch Date May 24, 2024
Age 2.3 years
Type internet

Technical Details

Classification Payload
Mass 730.00 kg
Dry Mass 700.00 kg
Length 0.30 m
Span 29.00 m
Shape ? Box + pan
Manufacturer SPXS
Bus Type Starlink V2M
Phase Status In Orbit
Owner/State SPXS/US

Most Searched